Regional Weather Roundup
Issued by NWS

Home | Current Version | Previous Version | Text Only | Print | Product List | Glossary Off
Versions: 1 2 3 4 5 6 7 8 9 10 11 12 13 14 15 16 17 18 19 20 21 22 23 24 25 26 27 28 29 30 31 32 33 34 35 36 37 38 39 40 41 42 43 44 45 46 47 48 49 50

000
ASUS43 KLSX 250859
RWRMO

WEATHER SUMMARY FOR MISSOURI
NATIONAL WEATHER SERVICE SPRINGFIELD MO
300 AM CST THU DEC 25 2014

NOTE: "FAIR" INDICATES FEW OR NO CLOUDS BELOW 12,000 FEET WITH NO
       SIGNIFICANT WEATHER AND/OR OBSTRUCTIONS TO VISIBILITY.
       CURRENT SKY AND/OR WEATHER CONDITIONS ARE NOT AVAILABLE FOR
       CHILLICOTHE AND FARMINGTON.

MOZ001>031-035>038-043-044-053-054-251000-
...NORTHERN AND WESTERN MISSOURI...

CITY           SKY/WX    TMP DP  RH WIND       PRES   REMARKS
KANSAS CTY INT PTCLDY    31  28  89 S12       29.80R WCI  22
KANSAS C DTWN  CLEAR     33  28  81 S10       29.82R WCI  25
LEE`S SUMMIT   CLEAR     31  27  85 S10       29.83R WCI  22
ST JOSEPH      PTCLDY    30  27  88 S8        29.79R WCI  22
CHILLICOTHE      N/A     32  28  85 S8        29.83S WCI  25
KIRKSVILLE     MOCLDY    32  30  92 S9        29.84R WCI  24

$$
MOZ066>068-077>081-088>096-101>105-251000-
...SOUTHWEST MISSOURI...

CITY           SKY/WX    TMP DP  RH WIND       PRES   REMARKS
SPRINGFIELD    CLEAR     30  27  88 S8        29.90S WCI  22
JOPLIN         CLEAR     34  29  82 S13       29.90R WCI  25

$$
MOZ032>034-039>042-045>050-055>058-069>072-251000-
...CENTRAL MISSOURI...

CITY           SKY/WX    TMP DP  RH WIND       PRES   REMARKS
COLUMBIA       CLEAR     31  28  89 S7        29.89S WCI  24
JEFFERSON CITY CLEAR     33  28  81 S5        29.92S WCI  29
ROLLA          CLEAR     30  27  88 S8        29.90R WCI  22
SEDALIA        CLEAR     31  28  89 S10       29.87S WCI  22
OSAGE BEACH    CLEAR     30  27  86 S5        29.90F WCI  25

$$
MOZ051-052-059>065-251000-
...EAST CENTRAL MISSOURI...

CITY           SKY/WX    TMP DP  RH WIND       PRES   REMARKS
ST LOUIS INTL  CLOUDY    39  30  70 W12       29.93R
SPIRIT OF STL  CLOUDY    38  31  76 SW6       29.93R
ST CHARLES     CLOUDY    38  30  73 W10       29.93R

$$
MOZ072>076-082>087-097>100-106>115-251000-
...SOUTH CENTRAL AND SOUTHEAST MISSOURI...

CITY           SKY/WX    TMP DP  RH WIND       PRES   REMARKS
CAPE GIRARDEAU MOCLDY    38  33  82 SW8       30.00R
FARMINGTON     CLOUDY    36  28  75 SW10      29.96R WCI  28
POPLAR BLUFF   MOCLDY    38  29  70 SW3       30.00R
WEST PLAINS    CLEAR     29  25  85 CALM      29.95R

$$



USA.gov is the U.S. government's official web portal to all federal, state and local government web resources and services.